Location: Madrid
(40.4000°N, 3.6830°W)
Time: 20:35:17
(UTC+01:00)

ISS - Pass Details

Date: 04 March 2021
Orbit: 417 x 422 km, 51.6° (Epoch: 26 February)

Event Time Altitude Azimuth Distance (km) Brightness Sun altitude
Exits shadow 05:42:40 12° 5° (N) 1,377 -1.0 -23.8°
Drops below altitude 10° 05:43:44 10° 23° (NNE) 1,498 -0.5 -23.6°
Sets 05:46:54 0° 56° (NE) 2,363 1.2 -23.0°
